146P/LINEAR-Shoemaker (2000)

Japanese version
Home page
Updated on December 13, 2000

---------------------------------------------------------------------

* Profile

Designation 146P/2000 S2
Rediscovery Date September 27, 2000
Magnitude 18.6 mag
Rediscoverer Lincoln Laboratory Near-Earth Asteroid Research project

* Orbital Elements

                    Epoch = 2000 June 25.0 TT
     T = 2000 July 14.2917 TT         Peri. = 317.7452
     e = 0.666835                     Node  =  55.3594  2000.0
     q = 1.319021 AU                  Incl. =  21.6197
       a =  3.959066 AU    n = 0.1251166    P =   7.878 years

* Finding Charts

* Magnitudes Graph

        m1 = 13.5 + 5 log d + 15.0 log r

---------------------------------------------------------------------

The orbital elements are calculated by Dr. Syuichi Nakano and printed on IAUC 7499.
The charts are made with StellaNavigator Ver.2.0 for Windows (AstroArts / ASCII).
The magnitudes graphs are made with Comet for Windows.

---------------------------------------------------------------------

Copyright(C) Seiichi Yoshida (comet@aerith.net). All rights reserved.